"startDT [UTC]","vpos","CH4 [ppm]","stdev(CH4) [ppm]","CO2 [ppm]","stdev(CO2) [ppm]","H2O [ppm]","stdev(H2O)","p_LGR [torr]","T_LGR [C]","mt1_LGR [us]","mt2_LGR [us]","T_ECpre [C]","T_EC1 [C]","T_EC2 [C]","p_inlet [hPa]","p_in [hPa]","p_out [hPa]","T_inlet [C]","RH_inlet [%]","dwpt_inlet [C]","T_vent [C]","RH_vent [%]","dwpt_vent [C]","flow_vent [l min-1]","flow_inlet [l min-1]","dwpt_sample [C]","T_room [C]"
2012-02-13 00:00:00,0.0,1.8923,0.0010,399.88,0.42,4.7,12.8,138.15,28.25,24.60,36.32,0.04,-272.73,-272.73,-49,560,-923,22.3,2.9,-25.4,22.3,3.0,-25.1,5.73,2.28,-28.0,26.3
2012-02-13 00:01:00,0.0,1.8927,0.0011,399.94,0.46,3.8,10.3,138.15,28.23,24.59,36.31,0.04,-272.74,-272.73,-49,559,-924,22.3,2.9,-25.3,22.3,3.0,-24.9,5.73,2.39,-27.9,26.5
2012-02-13 00:02:00,0.0,1.8929,0.0009,399.75,0.40,10.9,21.2,138.14,28.22,24.60,36.31,0.04,-272.74,-272.74,-49,561,-923,22.3,3.1,-24.7,22.3,3.1,-24.4,5.73,2.46,-27.8,26.6
2012-02-13 00:03:00,0.0,1.8930,0.0008,399.82,0.46,11.2,14.5,138.14,28.22,24.60,36.31,0.04,-272.73,-272.74,-48,561,-923,22.4,3.1,-24.7,22.4,3.2,-24.3,5.73,2.25,-27.7,26.8
2012-02-13 00:04:00,0.0,1.8927,0.0009,399.79,0.35,21.6,24.0,138.14,28.22,24.60,36.32,0.04,-272.73,-272.74,-49,560,-923,22.4,3.0,-24.8,22.4,3.1,-24.5,5.73,2.45,-27.6,26.9
2012-02-13 00:05:00,0.0,1.8931,0.0008,399.74,0.40,32.2,30.9,138.13,28.22,24.59,36.32,0.04,-272.73,-272.73,-49,561,-923,22.4,3.0,-24.9,22.4,3.1,-24.5,5.73,2.36,-27.5,27.0
2012-02-13 00:06:00,0.0,1.8925,0.0008,399.64,0.37,34.4,26.0,138.13,28.23,24.60,36.32,0.04,-272.74,-272.74,-48,561,-923,22.4,3.0,-25.0,22.5,3.1,-24.7,5.73,2.32,-27.4,27.1
2012-02-13 00:07:00,0.0,1.8929,0.0009,399.75,0.43,36.0,28.5,138.13,28.23,24.59,36.31,0.04,-272.74,-272.74,-49,560,-923,22.4,3.0,-25.0,22.5,3.0,-24.7,5.73,2.46,-27.4,27.2
2012-02-13 00:08:00,0.0,1.8930,0.0008,399.89,0.36,40.6,28.9,138.12,28.24,24.60,36.31,0.04,-272.74,-272.73,-49,560,-923,22.5,3.0,-24.9,22.5,3.1,-24.6,5.73,2.25,-27.3,27.2
2012-02-13 00:09:00,0.0,1.8931,0.0009,399.82,0.38,47.0,27.9,138.12,28.25,24.60,36.31,0.04,-272.74,-272.74,-48,561,-923,22.5,3.0,-24.8,22.5,3.1,-24.5,5.73,2.48,-27.2,27.3
2012-02-13 00:10:00,0.0,1.8938,0.0009,399.82,0.41,61.4,27.4,138.12,28.26,24.60,36.31,0.04,-272.74,-272.74,-49,560,-923,22.5,3.0,-24.8,22.5,3.1,-24.5,5.73,2.26,-27.2,27.3
2012-02-13 00:11:00,0.0,1.8937,0.0009,399.92,0.32,67.9,32.0,138.12,28.28,24.60,36.32,0.04,-272.74,-272.73,-48,560,-923,22.5,3.0,-24.8,22.6,3.1,-24.5,5.73,2.44,-27.1,27.3
2012-02-13 00:12:00,0.0,1.8944,0.0008,399.87,0.32,83.8,36.6,138.12,28.29,24.60,36.32,0.04,-272.73,-272.74,-48,561,-923,22.5,3.0,-24.7,22.6,3.1,-24.3,5.73,2.34,-27.0,27.4
2012-02-13 00:13:00,0.0,1.8950,0.0008,399.89,0.34,73.5,35.4,138.11,28.30,24.60,36.32,0.04,-272.73,-272.74,-49,561,-923,22.6,3.0,-24.9,22.6,3.1,-24.5,5.73,2.34,-27.0,27.4
2012-02-13 00:14:00,0.0,1.8953,0.0010,399.88,0.38,85.5,33.9,138.11,28.32,24.60,36.31,0.04,-272.74,-272.73,-47,561,-923,22.6,2.9,-25.0,22.7,3.0,-24.7,5.73,2.43,-26.9,27.4
2012-02-13 00:15:00,0.0,1.8952,0.0008,399.87,0.41,84.0,28.9,138.11,28.33,24.60,36.32,0.04,-272.74,-272.73,-49,559,-923,22.6,2.9,-25.1,22.7,3.0,-24.7,5.73,2.28,-26.9,27.5
2012-02-13 00:16:00,0.0,1.8952,0.0009,399.79,0.40,96.8,31.6,138.11,28.34,24.60,36.32,0.04,-272.74,-272.73,-48,561,-923,22.7,2.9,-25.2,22.7,3.0,-24.8,5.73,2.47,-26.8,27.5
2012-02-13 00:17:00,0.0,1.8959,0.0011,399.92,0.39,101.2,34.8,138.11,28.36,24.60,36.32,0.04,-272.73,-272.74,-48,560,-923,22.7,2.8,-25.4,22.7,2.9,-24.9,5.73,2.25,-26.8,27.5
2012-02-13 00:18:00,0.0,1.8963,0.0009,399.88,0.41,101.2,31.1,138.11,28.37,24.60,36.32,0.04,-272.73,-272.74,-49,561,-923,22.7,2.8,-25.5,22.8,2.9,-25.0,5.73,2.48,-26.7,27.5
2012-02-13 00:19:00,0.0,1.8974,0.0008,399.88,0.41,109.1,30.2,138.11,28.39,24.60,36.32,0.04,-272.74,-272.74,-48,561,-925,22.7,2.8,-25.5,22.8,2.9,-25.1,5.73,2.27,-26.6,27.6
2012-02-13 00:20:00,0.0,1.8971,0.0008,399.88,0.38,121.5,30.0,138.10,28.40,24.60,36.33,0.04,-272.74,-272.74,-49,561,-923,22.7,2.8,-25.4,22.8,2.9,-24.9,5.73,2.44,-26.6,27.6
2012-02-13 00:21:00,0.0,1.8973,0.0007,399.91,0.40,113.3,31.2,138.10,28.42,24.60,36.32,0.04,-272.74,-272.74,-48,562,-923,22.8,2.8,-25.3,22.9,2.9,-24.9,5.73,2.31,-26.6,27.7
2012-02-13 00:22:00,0.0,1.8976,0.0009,400.01,0.36,126.1,35.4,138.10,28.43,24.60,36.32,0.04,-272.73,-272.73,-48,562,-923,22.8,2.8,-25.3,22.9,2.9,-24.9,5.73,2.36,-26.5,27.5
2012-02-13 00:23:00,0.0,1.8970,0.0011,400.07,0.38,116.6,36.3,138.11,28.44,24.60,36.32,0.04,-272.74,-272.74,-49,562,-923,22.8,2.8,-25.3,22.9,2.9,-24.8,5.73,2.45,-26.6,27.1
2012-02-13 00:24:00,0.0,1.8967,0.0009,399.93,0.34,94.3,33.1,138.12,28.44,24.60,36.32,0.04,-272.74,-272.74,-49,562,-923,22.7,2.8,-25.5,22.8,2.9,-25.0,5.73,2.39,-26.8,26.8
2012-02-13 00:25:00,0.0,1.8953,0.0008,399.85,0.43,77.6,33.2,138.12,28.43,24.60,36.33,0.04,-272.73,-272.73,-49,562,-923,22.7,2.8,-25.5,22.8,2.9,-25.1,5.73,2.38,-27.0,26.6
2012-02-13 00:26:00,0.0,1.8946,0.0011,399.99,0.33,62.0,28.6,138.13,28.42,24.60,36.32,0.04,-272.74,-272.74,-49,562,-923,22.7,2.8,-25.5,22.7,2.9,-25.1,5.73,2.37,-27.1,26.2
2012-02-13 00:27:00,0.0,1.8936,0.0008,399.87,0.37,38.9,30.6,138.13,28.40,24.60,36.32,0.04,-272.73,-272.74,-49,562,-923,22.6,2.8,-25.6,22.6,2.9,-25.1,5.73,2.36,-27.3,26.0
2012-02-13 00:28:00,0.0,1.8935,0.0010,399.84,0.42,31.9,29.2,138.14,28.38,24.60,36.32,0.04,-272.73,-272.74,-49,562,-924,22.5,2.8,-25.6,22.6,2.9,-25.2,5.73,2.33,-27.5,25.9
2012-02-13 00:29:00,0.0,1.8936,0.0009,399.89,0.38,18.0,22.5,138.15,28.35,24.60,36.31,0.04,-272.74,-272.74,-49,561,-923,22.5,2.8,-25.5,22.5,2.9,-25.2,5.73,2.33,-27.6,25.7
2012-02-13 00:30:00,0.0,1.8929,0.0010,399.92,0.34,8.9,17.9,138.15,28.32,24.60,36.32,0.04,-272.74,-272.73,-49,561,-924,22.4,2.8,-25.6,22.4,2.9,-25.2,5.73,2.32,-27.8,25.6
2012-02-13 00:31:00,0.0,1.8926,0.0009,399.90,0.38,4.9,11.0,138.16,28.29,24.60,36.32,0.04,-272.73,-272.74,-48,561,-925,22.4,2.8,-25.7,22.3,2.9,-25.3,5.73,2.37,-27.8,25.6
2012-02-13 00:32:00,0.0,1.8922,0.0009,400.06,0.39,4.6,12.3,138.16,28.26,24.60,36.31,0.04,-272.73,-272.73,-49,561,-923,22.3,2.8,-25.7,22.3,2.9,-25.3,5.73,2.43,-27.9,26.0
2012-02-13 00:33:00,0.0,1.8924,0.0008,399.91,0.47,5.8,14.5,138.15,28.24,24.60,36.31,0.04,-272.73,-272.74,-49,559,-923,22.3,2.8,-25.7,22.3,2.9,-25.4,5.73,2.44,-27.9,26.3
2012-02-13 00:34:00,0.0,1.8928,0.0008,399.83,0.37,10.9,17.0,138.15,28.23,24.59,36.31,0.04,-272.74,-272.74,-49,560,-923,22.3,2.8,-25.5,22.3,2.9,-25.3,5.73,2.27,-27.8,26.5
2012-02-13 00:35:00,0.0,1.8924,0.0009,399.79,0.47,8.8,17.8,138.14,28.22,24.60,36.31,0.04,-272.74,-272.74,-49,560,-923,22.3,2.9,-25.4,22.3,3.0,-25.1,5.73,2.36,-27.7,26.6
2012-02-13 00:36:00,0.0,1.8929,0.0010,399.67,0.42,13.5,16.3,138.14,28.21,24.59,36.32,0.04,-272.74,-272.74,-49,560,-922,22.3,2.9,-25.4,22.4,3.0,-25.1,5.73,2.45,-27.6,26.8
2012-02-13 00:37:00,0.0,1.8928,0.0009,399.62,0.31,20.2,21.6,138.13,28.21,24.60,36.32,0.04,-272.73,-272.74,-49,560,-922,22.4,2.9,-25.4,22.4,3.0,-25.0,5.73,2.25,-27.5,26.9
2012-02-13 00:38:00,0.0,1.8925,0.0008,399.68,0.45,34.2,29.4,138.13,28.22,24.60,36.32,0.04,-272.74,-272.74,-49,560,-923,22.4,2.9,-25.3,22.4,3.0,-24.9,5.73,2.47,-27.4,26.9
2012-02-13 00:39:00,0.0,1.8930,0.0008,399.83,0.35,32.1,27.1,138.13,28.22,24.60,36.31,0.04,-272.74,-272.74,-49,560,-923,22.4,2.9,-25.3,22.4,3.0,-24.9,5.73,2.31,-27.3,27.0
2012-02-13 00:40:00,0.0,1.8929,0.0011,399.71,0.39,44.2,26.0,138.13,28.23,24.60,36.31,0.04,-272.74,-272.74,-49,560,-923,22.4,2.9,-25.3,22.5,3.0,-24.9,5.73,2.36,-27.3,27.1
2012-02-13 00:41:00,0.0,1.8930,0.0010,399.71,0.36,55.1,32.0,138.12,28.24,24.60,36.31,0.04,-272.74,-272.74,-49,560,-922,22.4,2.9,-25.4,22.5,2.9,-25.1,5.73,2.42,-27.2,27.1
2012-02-13 00:42:00,0.0,1.8937,0.0008,399.83,0.48,56.6,30.4,138.12,28.25,24.60,36.31,0.04,-272.74,-272.74,-48,560,-922,22.4,2.8,-25.5,22.5,2.9,-25.1,5.73,2.28,-27.1,27.2
2012-02-13 00:43:00,0.0,1.8939,0.0008,399.77,0.42,68.9,29.4,138.12,28.26,24.60,36.32,0.04,-272.73,-272.73,-49,560,-922,22.5,2.8,-25.5,22.5,2.9,-25.1,5.73,2.47,-27.1,27.2
2012-02-13 00:44:00,0.0,1.8946,0.0008,399.90,0.34,64.8,38.5,138.12,28.27,24.60,36.31,0.04,-272.74,-272.73,-49,560,-923,22.5,2.9,-25.4,22.5,2.9,-25.0,5.73,2.25,-27.0,27.3
2012-02-13 00:45:00,0.0,1.8946,0.0009,399.81,0.37,76.6,34.6,138.12,28.29,24.60,36.32,0.04,-272.74,-272.73,-48,560,-923,22.5,2.9,-25.3,22.5,3.0,-25.0,5.73,2.47,-26.9,27.3
2012-02-13 00:46:00,0.0,1.8952,0.0007,399.84,0.31,81.2,27.8,138.12,28.30,24.60,36.32,0.04,-272.74,-272.74,-49,560,-923,22.5,2.9,-25.3,22.6,3.0,-24.9,5.73,2.29,-26.9,27.3
2012-02-13 00:47:00,0.0,1.8953,0.0010,399.90,0.42,82.1,29.7,138.11,28.31,24.60,36.33,0.04,-272.74,-272.74,-48,561,-923,22.5,2.9,-25.3,22.6,3.0,-24.9,5.73,2.40,-26.8,27.4
2012-02-13 00:48:00,0.0,1.8959,0.0009,399.89,0.38,93.2,31.2,138.11,28.32,24.60,36.32,0.04,-272.73,-272.73,-48,561,-923,22.6,2.9,-25.3,22.6,3.0,-24.9,5.73,2.36,-26.8,27.4
2012-02-13 00:49:00,0.0,1.8964,0.0011,399.91,0.40,90.9,35.2,138.11,28.34,24.60,36.32,0.04,-272.74,-272.74,-49,562,-925,22.6,2.9,-25.2,22.7,3.0,-24.8,5.73,2.33,-26.7,27.4
2012-02-13 00:50:00,0.0,1.8964,0.0009,399.94,0.36,101.3,33.2,138.11,28.35,24.60,36.33,0.04,-272.74,-272.74,-48,561,-922,22.6,2.9,-25.3,22.7,3.0,-24.8,5.73,2.43,-26.7,27.4
2012-02-13 00:51:00,0.0,1.8966,0.0008,400.02,0.44,107.1,32.1,138.11,28.36,24.60,36.32,0.04,-272.73,-272.73,-49,561,-923,22.6,2.9,-25.2,22.7,3.0,-24.8,5.73,2.27,-26.6,27.5
2012-02-13 00:52:00,0.0,1.8974,0.0009,399.96,0.36,118.0,34.2,138.11,28.38,24.60,36.33,0.04,-272.73,-272.74,-48,561,-923,22.7,2.8,-25.3,22.7,2.9,-24.9,5.73,2.47,-26.6,27.6
2012-02-13 00:53:00,0.0,1.8971,0.0008,399.93,0.44,107.0,35.1,138.11,28.39,24.60,36.33,0.04,-272.74,-272.73,-48,561,-922,22.7,2.8,-25.3,22.8,2.9,-24.9,5.73,2.25,-26.5,27.6
2012-02-13 00:54:00,0.0,1.8974,0.0008,400.04,0.31,120.3,34.4,138.10,28.40,24.60,36.32,0.04,-272.74,-272.74,-49,561,-923,22.7,2.8,-25.3,22.8,2.9,-24.8,5.73,2.48,-26.5,27.7
2012-02-13 00:55:00,0.0,1.8977,0.0009,400.08,0.33,121.5,35.1,138.10,28.42,24.60,36.33,0.04,-272.73,-272.74,-48,561,-923,22.7,2.8,-25.3,22.8,3.0,-24.8,5.73,2.25,-26.5,27.7
2012-02-13 00:56:00,0.0,1.8975,0.0008,399.94,0.44,123.3,30.4,138.11,28.43,24.60,36.32,0.04,-272.74,-272.74,-49,561,-923,22.8,2.8,-25.2,22.8,2.9,-24.8,5.73,2.41,-26.5,27.2
2012-02-13 00:57:00,0.0,1.8972,0.0010,400.05,0.37,98.9,29.1,138.11,28.43,24.60,36.32,0.04,-272.74,-272.74,-49,562,-923,22.7,2.8,-25.3,22.8,2.9,-24.8,5.73,2.42,-26.7,27.0
2012-02-13 00:58:00,0.0,1.8960,0.0009,399.98,0.36,98.0,33.8,138.12,28.43,24.60,36.32,0.04,-272.73,-272.74,-49,562,-924,22.7,2.8,-25.3,22.7,2.9,-24.9,5.73,2.39,-26.8,26.6
2012-02-13 00:59:00,0.0,1.8953,0.0009,400.11,0.37,70.4,30.0,138.13,28.42,24.60,36.31,0.04,-272.74,-272.74,-49,562,-924,22.6,2.8,-25.4,22.7,2.9,-24.9,5.73,2.37,-27.0,26.4
2012-02-13 01:00:00,0.0,1.8944,0.0010,399.95,0.36,53.2,33.3,138.13,28.40,24.60,36.32,0.04,-272.74,-272.74,-49,562,-923,22.6,2.8,-25.4,22.6,3.0,-24.9,5.73,2.35,-27.2,26.0
2012-02-13 01:01:00,0.0,1.8939,0.0010,399.94,0.44,32.3,30.0,138.14,28.38,24.60,36.32,0.04,-272.74,-272.74,-49,561,-923,22.5,2.9,-25.3,22.5,3.0,-25.0,5.73,2.33,-27.3,25.7
2012-02-13 01:02:00,0.0,1.8938,0.0008,399.91,0.40,24.3,27.9,138.15,28.36,24.60,36.32,0.04,-272.74,-272.73,-49,561,-923,22.5,2.9,-25.3,22.5,3.0,-24.9,5.73,2.33,-27.5,25.6
2012-02-13 01:03:00,0.0,1.8932,0.0009,400.00,0.38,12.1,22.0,138.15,28.33,24.60,36.31,0.04,-272.74,-272.74,-49,561,-923,22.4,2.9,-25.3,22.4,3.0,-24.8,5.73,2.34,-27.6,25.5
2012-02-13 01:04:00,0.0,1.8932,0.0010,400.03,0.42,8.1,17.0,138.16,28.29,24.60,36.32,0.04,-272.74,-272.74,-51,560,-923,22.3,2.9,-25.2,22.3,3.0,-24.9,5.73,2.36,-27.7,25.4
2012-02-13 01:05:00,0.0,1.8930,0.0010,400.19,0.42,7.3,15.4,138.16,28.26,24.60,36.31,0.25,-270.91,-272.52,-49,560,-923,22.3,2.9,-25.3,22.3,3.0,-24.9,5.42,2.42,-31.9,25.8
2012-02-13 01:06:00,0.0,1.8927,0.0010,400.01,0.42,3.9,10.2,138.16,28.24,24.60,36.31,0.04,-272.74,-272.74,-50,562,-924,22.3,2.9,-25.3,22.3,3.0,-24.9,5.73,2.45,-27.8,26.1
2012-02-13 01:07:00,0.0,1.8925,0.0010,399.99,0.35,8.5,16.0,138.15,28.22,24.60,36.31,0.04,-272.74,-272.74,-50,561,-924,22.3,2.9,-25.3,22.3,3.0,-25.0,5.73,2.42,-27.7,26.3
2012-02-13 01:08:00,0.0,1.8923,0.0008,400.00,0.41,11.9,17.5,138.15,28.21,24.60,36.31,0.04,-272.74,-272.74,-49,560,-923,22.3,2.9,-25.2,22.3,3.0,-24.9,5.73,2.25,-27.6,26.5
2012-02-13 01:09:00,0.0,1.8927,0.0009,399.93,0.44,17.1,21.8,138.14,28.20,24.60,36.31,0.04,-272.73,-272.73,-49,560,-923,22.3,2.9,-25.2,22.3,3.0,-24.9,5.73,2.43,-27.6,26.7
2012-02-13 01:10:00,0.0,1.8925,0.0008,399.80,0.48,23.7,28.0,138.14,28.20,24.60,36.31,0.04,-272.74,-272.74,-49,560,-923,22.3,2.9,-25.3,22.3,3.0,-24.9,5.73,2.38,-27.5,26.8
2012-02-13 01:11:00,0.0,1.8927,0.0011,399.64,0.33,21.0,22.7,138.13,28.20,24.60,36.32,0.04,-272.74,-272.74,-49,559,-923,22.3,2.9,-25.3,22.4,3.0,-25.0,5.73,2.29,-27.4,26.9
2012-02-13 01:12:00,0.0,1.8934,0.0008,399.68,0.37,39.8,25.8,138.13,28.21,24.59,36.32,0.04,-272.74,-272.74,-49,559,-923,22.3,2.9,-25.3,22.4,3.0,-24.9,5.73,2.48,-27.3,27.0
2012-02-13 01:13:00,0.0,1.8928,0.0008,399.76,0.42,33.0,29.5,138.13,28.21,24.60,36.32,0.04,-272.74,-272.74,-48,560,-923,22.3,2.9,-25.3,22.4,3.0,-24.9,5.73,2.25,-27.2,27.0
2012-02-13 01:14:00,0.0,1.8927,0.0009,399.66,0.46,50.8,27.4,138.13,28.22,24.60,36.32,0.04,-272.74,-272.74,-49,560,-923,22.4,2.9,-25.3,22.4,3.0,-24.9,5.73,2.45,-27.2,27.1
2012-02-13 01:15:00,0.0,1.8931,0.0009,399.81,0.40,55.8,33.0,138.12,28.23,24.60,36.32,0.04,-272.74,-272.73,-49,559,-923,22.4,2.9,-25.3,22.4,3.0,-24.9,5.73,2.35,-27.1,27.2
2012-02-13 01:16:00,0.0,1.8936,0.0008,399.79,0.40,59.0,31.3,138.12,28.24,24.60,36.32,0.04,-272.73,-272.74,-48,560,-923,22.4,2.9,-25.3,22.5,3.0,-24.9,5.73,2.32,-27.0,27.2
2012-02-13 01:17:00,0.0,1.8940,0.0008,399.94,0.41,73.7,31.6,138.12,28.25,24.60,36.31,0.04,-272.74,-272.74,-49,560,-923,22.4,2.9,-25.2,22.5,3.0,-24.9,5.73,2.46,-26.9,27.3
2012-02-13 01:18:00,0.0,1.8942,0.0009,399.86,0.39,83.3,33.2,138.12,28.27,24.60,36.32,0.04,-272.73,-272.73,-49,560,-923,22.5,2.9,-25.2,22.5,3.0,-24.9,5.73,2.25,-26.9,27.3
2012-02-13 01:19:00,0.0,1.8948,0.0007,399.91,0.38,72.7,27.2,138.12,28.28,24.60,36.31,0.04,-272.73,-272.74,-48,560,-923,22.5,2.9,-25.2,22.5,3.0,-24.8,5.73,2.47,-26.8,27.4
2012-02-13 01:20:00,0.0,1.8956,0.0009,399.95,0.38,88.7,29.9,138.11,28.29,24.60,36.32,0.04,-272.74,-272.74,-49,560,-923,22.5,2.9,-25.1,22.6,3.0,-24.7,5.73,2.28,-26.8,27.4
2012-02-13 01:21:00,0.0,1.8958,0.0010,399.96,0.37,92.7,37.3,138.11,28.30,24.60,36.32,0.04,-272.73,-272.74,-48,561,-923,22.5,2.9,-25.0,22.6,3.0,-24.6,5.73,2.41,-26.7,27.5
2012-02-13 01:22:00,0.0,1.8960,0.0009,400.02,0.43,101.1,27.9,138.11,28.32,24.60,36.32,0.04,-272.74,-272.74,-48,560,-923,22.6,3.0,-24.9,22.6,3.1,-24.5,5.73,2.37,-26.6,27.5
2012-02-13 01:23:00,0.0,1.8966,0.0009,399.94,0.38,109.5,41.9,138.11,28.33,24.60,36.32,0.04,-272.73,-272.73,-49,560,-923,22.6,2.9,-25.0,22.7,3.0,-24.6,5.73,2.32,-26.6,27.6
2012-02-13 01:24:00,0.0,1.8969,0.0007,400.05,0.38,114.2,38.7,138.11,28.34,24.60,36.32,0.04,-272.74,-272.74,-48,561,-923,22.6,3.0,-24.9,22.7,3.1,-24.5,5.73,2.45,-26.5,27.6
2012-02-13 01:25:00,0.0,1.8970,0.0008,400.13,0.36,123.0,33.9,138.11,28.36,24.60,36.32,0.04,-272.74,-272.74,-49,561,-923,22.7,2.9,-24.9,22.8,3.0,-24.5,5.73,2.26,-26.5,27.7
2012-02-13 01:26:00,0.0,1.8974,0.0009,400.13,0.33,130.5,34.2,138.11,28.37,24.60,36.32,0.04,-272.74,-272.74,-49,561,-922,22.7,2.9,-24.9,22.8,3.0,-24.5,5.73,2.47,-26.4,27.8
2012-02-13 01:27:00,0.0,1.8977,0.0011,400.00,0.36,128.5,35.5,138.10,28.39,24.60,36.32,0.04,-272.74,-272.74,-46,559,-923,22.8,2.9,-24.9,22.8,3.0,-24.5,5.73,2.25,-26.3,27.9
2012-02-13 01:28:00,0.0,1.8980,0.0009,400.15,0.30,127.0,36.1,138.10,28.41,24.60,36.32,0.04,-272.74,-272.74,-49,561,-923,22.8,2.9,-24.9,22.9,3.0,-24.5,5.73,2.48,-26.3,28.0
2012-02-13 01:29:00,0.0,1.8979,0.0009,400.01,0.36,135.2,33.7,138.10,28.42,24.60,36.33,0.04,-272.74,-272.74,-48,562,-923,22.9,2.9,-24.9,22.9,3.0,-24.5,5.73,2.26,-26.2,27.7
2012-02-13 01:30:00,0.0,1.8979,0.0011,400.11,0.31,133.3,32.5,138.11,28.43,24.60,36.32,0.04,-272.74,-272.74,-48,562,-924,22.9,2.9,-25.0,22.9,3.0,-24.5,5.73,2.34,-26.3,27.2
2012-02-13 01:31:00,0.0,1.8976,0.0009,400.13,0.33,110.3,33.8,138.12,28.44,24.60,36.32,0.04,-272.74,-272.74,-49,563,-924,22.8,2.9,-25.0,22.9,3.0,-24.5,5.73,2.38,-26.4,27.0
2012-02-13 01:32:00,0.0,1.8962,0.0009,400.02,0.38,98.5,30.5,138.12,28.44,24.60,36.32,0.04,-272.74,-272.74,-49,563,-924,22.8,2.9,-25.0,22.8,3.0,-24.6,5.73,2.37,-26.5,26.7
2012-02-13 01:33:00,0.0,1.8954,0.0009,400.07,0.41,79.5,33.7,138.13,28.43,24.60,36.32,0.04,-272.74,-272.74,-49,563,-924,22.7,2.9,-25.2,22.8,3.0,-24.7,5.73,2.36,-26.8,26.4
2012-02-13 01:34:00,0.0,1.8947,0.0008,399.98,0.42,56.2,32.2,138.14,28.41,24.60,36.32,0.04,-272.73,-272.74,-49,562,-924,22.7,2.9,-25.2,22.7,3.0,-24.8,5.73,2.36,-26.9,26.1
2012-02-13 01:35:00,0.0,1.8938,0.0009,400.00,0.39,56.7,34.0,138.14,28.39,24.60,36.32,0.04,-272.74,-272.72,-49,562,-924,22.6,2.9,-25.2,22.6,3.0,-24.9,5.73,2.38,-27.1,25.9
2012-02-13 01:36:00,0.0,1.8938,0.0010,399.93,0.36,25.1,24.2,138.15,28.37,24.60,36.32,0.04,-272.73,-272.74,-49,562,-924,22.6,2.9,-25.3,22.5,3.0,-24.9,5.73,2.40,-27.3,25.7
2012-02-13 01:37:00,0.0,1.8934,0.0007,399.97,0.41,15.4,19.4,138.15,28.34,24.60,36.32,0.04,-272.74,-272.74,-49,561,-924,22.5,2.9,-25.3,22.5,3.0,-25.0,5.73,2.41,-27.4,25.5
2012-02-13 01:38:00,0.0,1.8931,0.0009,400.11,0.35,10.3,19.3,138.16,28.32,24.60,36.31,0.04,-272.74,-272.73,-49,561,-924,22.4,2.9,-25.4,22.4,3.0,-25.0,5.73,2.39,-27.5,25.6
2012-02-13 01:39:00,0.0,1.8928,0.0010,400.17,0.39,9.6,19.9,138.16,28.29,24.60,36.30,0.04,-272.74,-272.74,-51,562,-924,22.4,2.9,-25.4,22.3,3.0,-25.0,5.73,2.32,-27.6,26.0
2012-02-13 01:40:00,0.0,1.8925,0.0007,399.93,0.43,10.0,16.2,138.15,28.27,24.60,36.32,0.04,-272.74,-272.74,-49,561,-924,22.4,2.9,-25.4,22.3,3.0,-25.0,5.73,2.41,-27.5,26.3
2012-02-13 01:41:00,0.0,1.8924,0.0009,399.89,0.36,13.0,21.9,138.15,28.26,24.60,36.31,0.26,-270.89,-272.52,-49,561,-924,22.4,2.9,-25.4,22.4,3.0,-25.0,5.42,2.56,-31.6,26.5
2012-02-13 01:42:00,0.0,1.8925,0.0008,399.85,0.39,17.7,23.3,138.14,28.25,24.60,36.31,0.04,-272.75,-272.73,-49,560,-925,22.4,2.9,-25.3,22.4,3.0,-24.9,5.73,2.25,-27.3,26.7
2012-02-13 01:43:00,0.0,1.8923,0.0008,399.70,0.39,23.8,28.5,138.14,28.24,24.60,36.31,0.04,-272.74,-272.74,-49,560,-924,22.4,2.9,-25.3,22.4,3.0,-25.0,5.73,2.43,-27.2,26.8
2012-02-13 01:44:00,0.0,1.8918,0.0009,399.73,0.33,32.4,30.2,138.13,28.24,24.60,36.31,0.04,-272.74,-272.73,-49,560,-924,22.4,2.9,-25.3,22.4,3.0,-24.9,5.73,2.38,-27.2,26.9
2012-02-13 01:45:00,0.0,1.8921,0.0008,399.79,0.36,37.4,33.1,138.13,28.25,24.60,36.31,0.04,-272.73,-272.74,-49,560,-924,22.4,2.9,-25.3,22.5,3.0,-24.9,5.73,2.29,-27.1,27.0
2012-02-13 01:46:00,0.0,1.8920,0.0008,399.77,0.33,45.9,36.8,138.13,28.25,24.60,36.31,0.04,-272.74,-272.74,-49,560,-924,22.4,2.9,-25.3,22.5,3.0,-24.9,5.73,2.48,-27.0,27.1
2012-02-13 01:47:00,0.0,1.8919,0.0008,399.66,0.38,71.5,38.8,138.13,28.26,24.60,36.31,0.04,-272.74,-272.74,-48,561,-923,22.4,2.9,-25.2,22.5,3.0,-24.9,5.73,2.25,-26.9,27.1
2012-02-13 01:48:00,0.0,1.8922,0.0008,399.72,0.31,60.6,33.0,138.12,28.27,24.60,36.31,0.04,-272.74,-272.73,-49,561,-923,22.5,2.9,-25.2,22.5,3.0,-24.9,5.73,2.45,-26.9,27.2
2012-02-13 01:49:00,0.0,1.8927,0.0009,399.68,0.40,68.8,32.6,138.12,28.28,24.60,36.32,0.04,-272.74,-272.74,-49,561,-923,22.5,2.9,-25.2,22.5,3.0,-24.9,5.73,2.34,-26.8,27.3
2012-02-13 01:50:00,0.0,1.8931,0.0009,399.62,0.31,80.0,32.2,138.12,28.29,24.60,36.32,0.04,-272.74,-272.74,-48,560,-923,22.5,2.9,-25.2,22.6,3.0,-24.8,5.73,2.34,-26.8,27.3
2012-02-13 01:51:00,0.0,1.8933,0.0009,399.73,0.39,92.6,35.6,138.12,28.30,24.60,36.32,0.04,-272.74,-272.74,-49,561,-923,22.5,2.9,-25.1,22.6,3.0,-24.7,5.73,2.44,-26.7,27.3
2012-02-13 01:52:00,0.0,1.8936,0.0009,399.69,0.39,80.4,28.2,138.11,28.32,24.60,36.32,0.04,-272.73,-272.74,-48,561,-923,22.5,2.9,-25.1,22.6,3.0,-24.7,5.73,2.26,-26.7,27.3
2012-02-13 01:53:00,0.0,1.8940,0.0009,399.78,0.40,88.2,33.0,138.11,28.33,24.60,36.32,0.04,-272.74,-272.74,-48,560,-923,22.6,2.9,-25.1,22.7,3.0,-24.7,5.73,2.49,-26.6,27.4
2012-02-13 01:54:00,0.0,1.8941,0.0008,399.73,0.35,105.9,32.7,138.11,28.34,24.60,36.32,0.04,-272.74,-272.74,-49,561,-923,22.6,3.0,-24.9,22.7,3.1,-24.5,5.73,2.26,-26.6,27.4
2012-02-13 01:55:00,0.0,1.8946,0.0009,399.82,0.48,102.0,30.6,138.11,28.35,24.60,36.32,0.04,-272.73,-272.74,-51,561,-920,22.6,3.0,-24.7,22.7,3.1,-24.4,5.73,2.43,-26.5,27.4
2012-02-13 01:56:00,0.0,1.8952,0.0009,399.85,0.39,105.2,32.1,138.11,28.37,24.60,36.32,0.04,-272.74,-272.74,-49,560,-923,22.6,3.0,-24.7,22.7,3.1,-24.3,5.73,2.34,-26.5,27.4
2012-02-13 01:57:00,0.0,1.8952,0.0009,399.80,0.36,116.4,35.4,138.11,28.38,24.60,36.32,0.04,-272.74,-272.74,-49,561,-923,22.7,3.0,-24.6,22.7,3.1,-24.2,5.73,2.34,-26.4,27.5
2012-02-13 01:58:00,0.0,1.8954,0.0009,399.88,0.34,116.2,38.9,138.11,28.39,24.60,36.32,0.04,-272.73,-272.74,-48,561,-923,22.7,3.0,-24.6,22.8,3.1,-24.2,5.73,2.43,-26.4,27.5
2012-02-13 01:59:00,0.0,1.8958,0.0010,399.83,0.38,112.9,34.8,138.11,28.41,24.60,36.32,0.04,-272.73,-272.73,-49,561,-923,22.7,3.0,-24.6,22.8,3.1,-24.2,5.73,2.27,-26.3,27.6
2012-02-13 02:00:00,0.0,1.8961,0.0008,399.93,0.39,125.0,32.6,138.10,28.42,24.60,36.32,0.04,-272.73,-272.74,-47,561,-923,22.7,3.0,-24.7,22.8,3.1,-24.2,5.73,2.47,-26.3,27.6
2012-02-13 02:01:00,0.0,1.8960,0.0010,400.03,0.37,127.5,33.8,138.10,28.44,24.60,36.32,0.04,-272.74,-272.74,-49,561,-924,22.7,3.0,-24.7,22.8,3.1,-24.3,5.73,2.25,-26.3,27.7
2012-02-13 02:02:00,0.0,1.8965,0.0010,400.03,0.33,131.5,32.3,138.10,28.45,24.60,36.32,0.04,-272.74,-272.73,-49,562,-924,22.8,3.0,-24.7,22.9,3.1,-24.3,5.73,2.47,-26.2,27.5
2012-02-13 02:03:00,0.0,1.8961,0.0008,399.99,0.37,123.0,33.3,138.11,28.46,24.60,36.32,0.04,-272.74,-272.74,-48,562,-924,22.8,3.0,-24.7,22.9,3.1,-24.3,5.73,2.39,-26.3,27.1
2012-02-13 02:04:00,0.0,1.8955,0.0009,399.89,0.36,111.6,31.7,138.11,28.46,24.60,36.32,0.04,-272.74,-272.74,-48,562,-924,22.7,3.0,-24.6,22.8,3.1,-24.3,5.73,2.35,-26.5,26.9
2012-02-13 02:05:00,0.0,1.8948,0.0009,399.83,0.36,88.4,31.3,138.12,28.46,24.60,36.33,0.04,-272.74,-272.73,-49,562,-924,22.7,3.0,-24.6,22.8,3.1,-24.2,5.73,2.38,-26.6,26.6
2012-02-13 02:06:00,0.0,1.8940,0.0009,399.94,0.41,75.9,31.4,138.13,28.45,24.60,36.32,0.04,-272.73,-272.73,-49,562,-924,22.7,3.1,-24.5,22.7,3.2,-24.1,5.73,2.39,-26.8,26.4
2012-02-13 02:07:00,0.0,1.8937,0.0009,399.90,0.40,47.1,29.7,138.14,28.43,24.60,36.32,0.04,-272.74,-272.74,-49,562,-924,22.6,3.1,-24.5,22.6,3.2,-24.0,5.73,2.39,-27.0,26.0
2012-02-13 02:08:00,0.0,1.8926,0.0009,399.83,0.44,39.4,34.4,138.14,28.40,24.60,36.32,0.04,-272.74,-272.74,-48,562,-924,22.5,3.1,-24.5,22.5,3.2,-24.2,5.73,2.37,-27.2,25.9
2012-02-13 02:09:00,0.0,1.8932,0.0011,399.86,0.41,21.2,22.7,138.15,28.38,24.60,36.32,0.04,-272.73,-272.74,-48,561,-924,22.5,3.1,-24.6,22.5,3.2,-24.2,5.73,2.34,-27.3,25.7
2012-02-13 02:10:00,0.0,1.8927,0.0009,399.92,0.41,10.3,18.9,138.15,28.35,24.60,36.32,0.04,-272.74,-272.74,-49,561,-924,22.4,3.1,-24.7,22.4,3.2,-24.3,5.73,2.32,-27.4,25.6
2012-02-13 02:11:00,0.0,1.8922,0.0010,400.01,0.43,13.1,21.5,138.16,28.32,24.60,36.31,0.04,-272.74,-272.74,-50,562,-924,22.3,3.0,-24.8,22.3,3.1,-24.5,5.73,2.34,-27.6,25.5
2012-02-13 02:12:00,0.0,1.8923,0.0008,399.90,0.44,10.1,18.3,138.16,28.29,24.60,36.32,0.04,-272.74,-272.74,-49,561,-924,22.3,3.0,-24.8,22.3,3.1,-24.5,5.73,2.43,-27.6,26.0
2012-02-13 02:13:00,0.0,1.8916,0.0008,399.96,0.40,7.3,17.0,138.15,28.26,24.60,36.31,0.04,-272.74,-272.74,-49,561,-925,22.3,3.0,-24.9,22.3,3.1,-24.6,5.73,2.37,-27.5,26.3
2012-02-13 02:14:00,0.0,1.8917,0.0009,399.91,0.42,11.3,19.7,138.15,28.25,24.60,36.31,0.04,-272.74,-272.74,-49,561,-925,22.3,3.0,-25.0,22.3,3.1,-24.7,5.73,2.26,-27.4,26.5
2012-02-13 02:15:00,0.0,1.8920,0.0007,399.69,0.38,15.2,24.2,138.14,28.24,24.60,36.31,0.04,-272.74,-272.74,-49,561,-924,22.3,3.0,-25.1,22.3,3.0,-24.8,5.73,2.45,-27.4,26.6
2012-02-13 02:16:00,0.0,1.8919,0.0010,399.60,0.42,30.6,27.8,138.14,28.23,24.60,36.31,0.04,-272.73,-272.74,-48,560,-923,22.3,2.9,-25.2,22.4,3.0,-24.8,5.73,2.38,-27.3,26.8
2012-02-13 02:17:00,0.0,1.8918,0.0010,399.70,0.36,28.7,30.8,138.13,28.23,24.60,36.31,0.04,-272.73,-272.74,-49,560,-924,22.4,2.9,-25.2,22.4,3.0,-24.8,5.73,2.29,-27.2,26.9